• In Hungary
  • List of Countries
  • For 7 days
  • Water Temperature
  • Satellite Maps
  • Weather Map
  • News
  • Weather Widgets
  • user-avatar
    Login

    Hourly Weather Budowko

    Today, 22 October, Monday

    Time Temperature Precipitation Wind Pressure Humidity
    00:00 +6°C° 0 mm 4 mps 759 mmHg 84%
    01:00 +6°C° 0 mm 5 mps 759 mmHg 83%
    02:00 +6°C° 0 mm 5 mps 758 mmHg 83%
    03:00 +6°C° 0 mm 5 mps 758 mmHg 83%
    04:00 +6°C° 0 mm 5 mps 757 mmHg 83%
    05:00 +6°C° 0 mm 5 mps 757 mmHg 83%
    06:00 +6°C° 0 mm 5 mps 757 mmHg 83%
    07:00 +6°C° 0 mm 5 mps 757 mmHg 82%
    08:00 +7°C° 0.1 mm 5 mps 757 mmHg 81%
    09:00 +8°C° 0.1 mm 5 mps 756 mmHg 80%
    10:00 +9°C° 0.1 mm 5 mps 756 mmHg 79%
    11:00 +9°C° 0.4 mm 5 mps 756 mmHg 80%
    12:00 +9°C° 0.4 mm 6 mps 756 mmHg 80%
    13:00 +9°C° 0.4 mm 6 mps 757 mmHg 81%
    14:00 +9°C° 0.1 mm 6 mps 757 mmHg 76%
    15:00 +9°C° 0.1 mm 6 mps 757 mmHg 72%
    16:00 +9°C° 0.1 mm 6 mps 757 mmHg 68%
    17:00 +8°C° 0 mm 5 mps 757 mmHg 70%
    18:00 +8°C° 0 mm 5 mps 757 mmHg 72%
    19:00 +7°C° 0 mm 5 mps 757 mmHg 74%
    20:00 +7°C° 0 mm 5 mps 757 mmHg 75%
    21:00 +6°C° 0 mm 5 mps 757 mmHg 76%
    22:00 +6°C° 0 mm 4 mps 757 mmHg 78%
    23:00 +6°C° 0 mm 5 mps 756 mmHg 78%

    Tomorrow, 23 October, Tuesday

    Time Temperature Precipitation Wind Pressure Humidity
    00:00 +6°C° 0 mm 5 mps 756 mmHg 79%
    01:00 +6°C° 0 mm 5 mps 755 mmHg 80%
    02:00 +5°C° 0.3 mm 6 mps 754 mmHg 80%
    03:00 +5°C° 0.3 mm 7 mps 753 mmHg 80%
    04:00 +5°C° 0.3 mm 7 mps 752 mmHg 80%
    05:00 +5°C° 0.9 mm 8 mps 750 mmHg 81%
    06:00 +5°C° 0.9 mm 9 mps 749 mmHg 81%
    07:00 +5°C° 0.9 mm 10 mps 747 mmHg 82%
    08:00 +4°C° 1.7 mm 11 mps 746 mmHg 83%
    09:00 +6°C° 1.7 mm 11 mps 744 mmHg 84%
    10:00 +7°C° 1.7 mm 11 mps 743 mmHg 84%
    11:00 +7°C° 2.1 mm 11 mps 742 mmHg 84%
    12:00 +8°C° 2.1 mm 11 mps 741 mmHg 83%
    13:00 +9°C° 2.1 mm 10 mps 740 mmHg 83%
    14:00 +9°C° 0.5 mm 10 mps 739 mmHg 79%
    15:00 +9°C° 0.5 mm 10 mps 739 mmHg 76%
    16:00 +9°C° 0.5 mm 10 mps 738 mmHg 72%
    17:00 +8°C° 0.2 mm 10 mps 738 mmHg 72%
    18:00 +8°C° 0.2 mm 9 mps 738 mmHg 73%
    19:00 +8°C° 0.2 mm 9 mps 738 mmHg 73%
    20:00 +8°C° 0.2 mm 9 mps 737 mmHg 71%
    21:00 +8°C° 0.2 mm 10 mps 736 mmHg 69%
    22:00 +7°C° 0.2 mm 10 mps 736 mmHg 68%
    23:00 +7°C° 0.3 mm 10 mps 736 mmHg 66%

    Day after tomorrow, 24 October, Wednesday

    Time Temperature Precipitation Wind Pressure Humidity
    00:00 +6°C° 0.3 mm 11 mps 736 mmHg 63%
    01:00 +5°C° 0.3 mm 12 mps 736 mmHg 61%
    02:00 +4°C° 0.1 mm 11 mps 737 mmHg 58%
    03:00 +4°C° 0.1 mm 11 mps 738 mmHg 55%
    04:00 +3°C° 0.1 mm 10 mps 739 mmHg 52%
    05:00 +3°C° 0 mm 10 mps 739 mmHg 52%
    06:00 +3°C° 0 mm 10 mps 740 mmHg 53%
    07:00 +2°C° 0 mm 10 mps 741 mmHg 53%
    08:00 +3°C° 0 mm 11 mps 741 mmHg 52%
    09:00 +4°C° 0 mm 11 mps 742 mmHg 51%
    10:00 +4°C° 0 mm 12 mps 742 mmHg 50%
    11:00 +5°C° 0 mm 12 mps 743 mmHg 49%
    12:00 +6°C° 0 mm 11 mps 744 mmHg 49%
    13:00 +6°C° 0 mm 11 mps 745 mmHg 48%
    14:00 +6°C° 0 mm 10 mps 745 mmHg 50%
    15:00 +6°C° 0 mm 9 mps 746 mmHg 51%
    16:00 +5°C° 0 mm 8 mps 747 mmHg 52%
    17:00 +5°C° 0 mm 7 mps 747 mmHg 54%
    18:00 +5°C° 0 mm 6 mps 747 mmHg 56%
    19:00 +4°C° 0 mm 6 mps 748 mmHg 58%
    20:00 +5°C° 0 mm 5 mps 747 mmHg 61%
    21:00 +5°C° 0 mm 4 mps 747 mmHg 63%
    22:00 +4°C° 0 mm 4 mps 747 mmHg 66%
    23:00 +4°C° 0 mm 4 mps 747 mmHg 69%

    25 October, Thursday

    Time Temperature Precipitation Wind Pressure Humidity
    00:00 +4°C° 0 mm 4 mps 746 mmHg 71%
    01:00 +4°C° 0 mm 4 mps 746 mmHg 74%
    02:00 +5°C° 0.6 mm 5 mps 744 mmHg 79%
    03:00 +6°C° 0.6 mm 5 mps 743 mmHg 85%
    04:00 +5°C° 0.6 mm 6 mps 742 mmHg 90%
    05:00 +6°C° 0.7 mm 7 mps 741 mmHg 86%
    06:00 +7°C° 0.7 mm 9 mps 741 mmHg 81%
    07:00 +8°C° 0.7 mm 10 mps 740 mmHg 77%
    08:00 +8°C° 0.1 mm 10 mps 740 mmHg 74%
    09:00 +8°C° 0.1 mm 10 mps 740 mmHg 71%
    10:00 +8°C° 0.1 mm 9 mps 741 mmHg 68%
    11:00 +10°C° 0.1 mm 9 mps 741 mmHg 66%
    12:00 +10°C° 0.1 mm 9 mps 741 mmHg 65%
    13:00 +10°C° 0.1 mm 9 mps 742 mmHg 63%
    14:00 +10°C° 0 mm 9 mps 742 mmHg 65%
    15:00 +10°C° 0 mm 8 mps 742 mmHg 67%
    16:00 +9°C° 0 mm 7 mps 743 mmHg 69%
    17:00 +9°C° 0.1 mm 7 mps 743 mmHg 70%
    18:00 +9°C° 0.1 mm 7 mps 743 mmHg 72%
    19:00 +8°C° 0.1 mm 6 mps 744 mmHg 73%
    20:00 +8°C° 0 mm 5 mps 744 mmHg 73%
    21:00 +7°C° 0 mm 5 mps 745 mmHg 74%
    22:00 +6°C° 0 mm 4 mps 745 mmHg 74%
    23:00 +7°C° 0 mm 3 mps 745 mmHg 76%

    26 October, Friday

    Time Temperature Precipitation Wind Pressure Humidity
    00:00 +5°C° 0 mm 3 mps 746 mmHg 78%
    01:00 +6°C° 0 mm 2 mps 746 mmHg 79%
    02:00 +5°C° 0 mm 2 mps 746 mmHg 80%
    03:00 +5°C° 0 mm 2 mps 746 mmHg 80%
    04:00 +5°C° 0 mm 2 mps 746 mmHg 80%
    05:00 +5°C° 0 mm 2 mps 746 mmHg 81%
    06:00 +6°C° 0 mm 2 mps 746 mmHg 82%
    07:00 +6°C° 0 mm 2 mps 746 mmHg 84%
    08:00 +7°C° 0 mm 3 mps 746 mmHg 82%
    09:00 +8°C° 0 mm 3 mps 746 mmHg 80%
    10:00 +8°C° 0 mm 4 mps 745 mmHg 78%
    11:00 +8°C° 0.1 mm 4 mps 745 mmHg 75%
    12:00 +10°C° 0.1 mm 4 mps 744 mmHg 73%
    13:00 +9°C° 0.1 mm 5 mps 744 mmHg 70%
    14:00 +9°C° 0.3 mm 5 mps 744 mmHg 73%
    15:00 +9°C° 0.3 mm 5 mps 743 mmHg 76%
    16:00 +9°C° 0.3 mm 5 mps 742 mmHg 79%
    17:00 +9°C° 0.1 mm 5 mps 742 mmHg 80%
    18:00 +9°C° 0.1 mm 6 mps 742 mmHg 82%
    19:00 +9°C° 0.1 mm 6 mps 741 mmHg 83%
    20:00 +9°C° 0.1 mm 6 mps 741 mmHg 83%
    21:00 +9°C° 0.1 mm 6 mps 741 mmHg 83%
    22:00 +9°C° 0.1 mm 6 mps 740 mmHg 84%
    23:00 +9°C° 0 mm 6 mps 740 mmHg 84%

    27 October, Saturday

    Time Temperature Precipitation Wind Pressure Humidity
    00:00 +8°C° 0 mm 6 mps 740 mmHg 85%
    01:00 +8°C° 0 mm 6 mps 739 mmHg 86%
    02:00 +8°C° 0.1 mm 6 mps 739 mmHg 86%
    03:00 +8°C° 0.1 mm 6 mps 739 mmHg 86%
    04:00 +7°C° 0.1 mm 5 mps 739 mmHg 86%
    05:00 +7°C° 0.1 mm 5 mps 739 mmHg 85%
    06:00 +7°C° 0.1 mm 5 mps 739 mmHg 84%
    07:00 +7°C° 0.1 mm 5 mps 739 mmHg 83%
    08:00 +7°C° 0 mm 5 mps 740 mmHg 78%
    09:00 +7°C° 0 mm 5 mps 740 mmHg 74%
    10:00 +8°C° 0 mm 6 mps 740 mmHg 69%
    11:00 +8°C° 0 mm 5 mps 740 mmHg 65%
    12:00 +8°C° 0 mm 5 mps 740 mmHg 61%
    13:00 +9°C° 0 mm 5 mps 741 mmHg 58%
    14:00 +8°C° 0 mm 4 mps 741 mmHg 60%
    15:00 +9°C° 0 mm 3 mps 741 mmHg 63%
    16:00 +8°C° 0 mm 3 mps 741 mmHg 66%
    17:00 +8°C° 0 mm 2 mps 741 mmHg 67%
    18:00 +7°C° 0 mm 2 mps 741 mmHg 69%
    19:00 +7°C° 0 mm 2 mps 741 mmHg 71%
    20:00 +8°C° 0 mm 1 mps 741 mmHg 71%
    21:00 +8°C° 0 mm 1 mps 741 mmHg 72%
    22:00 +8°C° 0 mm 1 mps 741 mmHg 72%
    23:00 +8°C° 0 mm 1 mps 741 mmHg 72%

    28 October, Sunday

    Time Temperature Precipitation Wind Pressure Humidity
    00:00 +8°C° 0 mm 1 mps 741 mmHg 73%
    01:00 +8°C° 0 mm 1 mps 741 mmHg 73%
    02:00 +7°C° 0.1 mm 1 mps 741 mmHg 74%
    03:00 +7°C° 0.1 mm 1 mps 741 mmHg 75%
    04:00 +7°C° 0.1 mm 1 mps 741 mmHg 77%
    05:00 +7°C° 0.1 mm 1 mps 741 mmHg 78%
    06:00 +7°C° 0.1 mm 1 mps 741 mmHg 80%
    07:00 +7°C° 0.1 mm 1 mps 741 mmHg 81%
    08:00 +6°C° 0.2 mm 2 mps 741 mmHg 80%
    09:00 +7°C° 0.2 mm 2 mps 741 mmHg 79%
    10:00 +7°C° 0.2 mm 3 mps 741 mmHg 78%
    11:00 +7°C° 0.4 mm 3 mps 741 mmHg 79%
    12:00 +7°C° 0.4 mm 3 mps 741 mmHg 79%
    13:00 +7°C° 0.4 mm 3 mps 741 mmHg 80%
    14:00 +7°C° 0.8 mm 3 mps 741 mmHg 82%
    15:00 +7°C° 0.8 mm 3 mps 741 mmHg 85%
    16:00 +7°C° 0.8 mm 3 mps 741 mmHg 87%
    17:00 +5°C° 0.6 mm 3 mps 742 mmHg 88%
    18:00 +6°C° 0.6 mm 2 mps 742 mmHg 90%
    19:00 +6°C° 0.6 mm 2 mps 742 mmHg 91%
    20:00 +6°C° 0.6 mm 2 mps 743 mmHg 91%
    21:00 +5°C° 0.6 mm 3 mps 743 mmHg 91%
    22:00 +5°C° 0.6 mm 3 mps 744 mmHg 91%
    23:00 +5°C° 1 mm 4 mps 744 mmHg 89%
    Show more